This is the latest recevied weather packets stored in our database for station/object K3PPP. If no packets are shown the sender has not sent any weather packets the latest 10 day(s).
| Time | Temp. | Humidity | Pressure | Rain* | Wind** | Luminosity | Snow |
|---|---|---|---|---|---|---|---|
| 1777499916 | 12.78° C | 99% | 1007.1 hPa | 1.27 mm | - | 30 W/m² | - |
| 1777499612 | 12.78° C | 99% | 1006.9 hPa | 1.27 mm | - | 38 W/m² | - |
| 1777499310 | 12.78° C | 99% | 1006.9 hPa | 1.78 mm | - | 27 W/m² | - |
| 1777499008 | 12.78° C | 99% | 1007 hPa | 1.78 mm | - | 20 W/m² | - |
| 1777498703 | 12.78° C | 99% | 1006.8 hPa | 0 mm | - | 82 W/m² | - |
| 1777498400 | 12.78° C | 99% | 1006.8 hPa | 0 mm | - | 56 W/m² | - |
| 1777498097 | 12.78° C | 99% | 1006.6 hPa | 0 mm | - | 54 W/m² | - |
| 1777497794 | 12.78° C | 99% | 1006.6 hPa | 1.27 mm | - | 70 W/m² | - |
| 1777497491 | 12.78° C | 99% | 1006.5 hPa | 4.32 mm | - | 115 W/m² | - |
| 1777497187 | 12.78° C | 99% | 1006.7 hPa | 3.05 mm | - | 87 W/m² | - |
| 1777496884 | 13.33° C | 99% | 1006.7 hPa | 3.05 mm | - | 93 W/m² | - |
| 1777496581 | 13.33° C | 99% | 1006.6 hPa | 3.05 mm | - | 36 W/m² | - |
| 1777496277 | 13.33° C | 99% | 1006.7 hPa | 8.89 mm | - | 55 W/m² | - |
| 1777495973 | 13.33° C | 99% | 1006.6 hPa | 9.65 mm | - | 77 W/m² | - |
| 1777495669 | 13.33° C | 99% | 1006.5 hPa | 3.05 mm | - | 26 W/m² | - |
| 1777495365 | 13.33° C | 99% | 1006.6 hPa | 3.05 mm | - | 24 W/m² | - |
| 1777495062 | 13.33° C | 99% | 1006.7 hPa | 4.32 mm | - | 65 W/m² | - |
| 1777494760 | 13.33° C | 99% | 1006.6 hPa | 3.05 mm | - | 76 W/m² | - |
| 1777494457 | 13.33° C | 99% | 1006.8 hPa | 1.78 mm | - | 24 W/m² | - |
| 1777494153 | 13.33° C | 99% | 1006.5 hPa | 6.6 mm | - | 27 W/m² | - |
| 1777493850 | 13.33° C | 99% | 1006.7 hPa | 9.65 mm | - | 37 W/m² | - |
| 1777493548 | 13.33° C | 99% | 1006.7 hPa | 9.65 mm | - | 101 W/m² | - |
| 1777493246 | 13.33° C | 99% | 1007.1 hPa | 6.1 mm | - | 64 W/m² | - |
| 1777492942 | 13.33° C | 99% | 1006.9 hPa | 4.32 mm | - | 59 W/m² | - |
| 1777492639 | 13.89° C | 99% | 1007 hPa | 4.83 mm | - | 76 W/m² | - |
* Rain latest hour (hover to see other rain measurements)
** Current wind speed in m/s (hover to see current wind gust speed)